This is the latest recevied weather packets stored in our database for station/object AI5BL. If no packets are shown the sender has not sent any weather packets the latest 10 day(s).
| Time | Temp. | Humidity | Pressure | Rain* | Wind** | Luminosity | Snow |
|---|---|---|---|---|---|---|---|
| 1777665301 | 13.89° C | 96% | 1015.7 hPa | 1.27 mm | - | 54 W/m² | - |
| 1777664996 | 13.89° C | 96% | 1015.8 hPa | 3.05 mm | - | 54 W/m² | - |
| 1777664692 | 13.89° C | 96% | 1016 hPa | 1.78 mm | - | 46 W/m² | - |
| 1777664388 | 13.89° C | 95% | 1015.8 hPa | 0 mm | - | 52 W/m² | - |
| 1777664087 | 14.44° C | 95% | 1015.9 hPa | 1.27 mm | - | 58 W/m² | - |
| 1777663784 | 14.44° C | 96% | 1015.9 hPa | 6.1 mm | - | 82 W/m² | - |
| 1777663481 | 14.44° C | 96% | 1016.1 hPa | 4.83 mm | - | 87 W/m² | - |
| 1777663178 | 14.44° C | 95% | 1015.9 hPa | 0 mm | - | 77 W/m² | - |
| 1777662875 | 14.44° C | 95% | 1015.9 hPa | 0 mm | - | 77 W/m² | - |
| 1777662572 | 14.44° C | 94% | 1016 hPa | 0 mm | - | 66 W/m² | - |
| 1777662269 | 14.44° C | 95% | 1016.3 hPa | 1.27 mm | - | 61 W/m² | - |
| 1777661969 | 15° C | 95% | 1016.5 hPa | 1.27 mm | - | 69 W/m² | - |
| 1777661666 | 15° C | 95% | 1016.2 hPa | 0 mm | - | 81 W/m² | - |
| 1777661361 | 15° C | 92% | 1016.2 hPa | 0 mm | - | 61 W/m² | - |
| 1777661058 | 15° C | 91% | 1016.2 hPa | 0 mm | - | 66 W/m² | - |
| 1777660753 | 15.56° C | 94% | 1016.5 hPa | 0 mm | - | 72 W/m² | - |
| 1777660450 | 15.56° C | 95% | 1016.4 hPa | 0 mm | - | 78 W/m² | - |
| 1777660147 | 15° C | 95% | 1016.5 hPa | 0 mm | - | 103 W/m² | - |
| 1777659844 | 15° C | 95% | 1016.5 hPa | 0 mm | - | 77 W/m² | - |
| 1777659540 | 15° C | 95% | 1016.4 hPa | 0 mm | - | 82 W/m² | - |
| 1777659237 | 15.56° C | 95% | 1016.6 hPa | 0 mm | - | 74 W/m² | - |
| 1777658935 | 15.56° C | 93% | 1016.6 hPa | 0 mm | - | 88 W/m² | - |
| 1777658630 | 15.56° C | 93% | 1016.4 hPa | 0 mm | - | 111 W/m² | - |
| 1777658328 | 15.56° C | 93% | 1016.5 hPa | 0 mm | - | 181 W/m² | - |
| 1777658024 | 15.56° C | 95% | 1016.7 hPa | 0 mm | - | 184 W/m² | - |
* Rain latest hour (hover to see other rain measurements)
** Current wind speed in m/s (hover to see current wind gust speed)